Starlink 32661

operational
NORAD ID: 62899 Int'l Des: 2025-024 Owner: SPXS Country: US Constellation: starlink
LEOCIRCULAR

Starlink 32661について

説明を読み込み中...

リアルタイム位置

3D地球を読み込み中...

次回通過

高度履歴

Altitude vs Time

uPlot chart will show altitude changes over time

軌道要素

1 62899U 25024W 25306.36294880 .00031910 00000-0 11636-2 0 9996
2 62899 43.0046 324.3755 0000749 226.4558 133.6231 15.27595139 42792
Epoch: Nov 2, 2025 • Age: 29 hours

現在のステータス

高度 483.4 km
速度 7.63 km/s
衛星直下点 -7.21°S, 104.58°W
打ち上げ日 Feb 4, 2025
運用期間 0.7 years
タイプ internet

技術仕様

分類 Payload
質量 730.00 kg
乾燥質量 700.00 kg
総質量 730.00 kg
長さ 0.30 m
直径 4.10 m
スパン 29.00 m
形状 Box + pan
製造者 SPXS
バスタイプ Starlink V2M
フェーズステータス In Orbit
所有者/国 SPXS/US

大規模コンステレーション

Loading constellations...